Location: Bou Ouachlou
(32.7770°N, 5.6009°W)
Time: 18:13:25
(UTC+00:00)

USA 229 - Pass Details

Date: 07 June 2020
Orbit: 980 x 1233 km, 63.4° (Epoch: 24 June)

Event Time Altitude Azimuth Distance (km) Brightness Sun altitude
Rises 02:59:27 0° 327° (NNW) 4,014 6.9 -22.8°
Reaches altitude 10° 03:02:07 10° 326° (NW) 3,082 6.3 -22.5°
Maximum altitude 03:09:32 73° 244° (WSW) 1,257 3.8 -21.5°
Drops below altitude 10° 03:17:12 10° 160° (SSE) 3,180 5.9 -20.4°
Sets 03:19:59 0° 159° (SSE) 4,147 6.5 -20.0°
